Tracking 19908 objects as of 19-Oct-2019
HD Live streaming from Space Station
objects crossing your sky now

COSMOS 903 DEB


COSMOS 903 DEB is no longer on orbit


NORAD ID: 32961
Int'l Code: 1977-027G
Perigee: N/A
Apogee: N/A
Inclination: N/A
Period: N/A
Semi major axis: N/A
RCS: N/A
Launch date: April 11, 1977
Source: Commonwealth of Independent States (former USSR) (CIS)
Launch site: PLESETSK MISSILE AND SPACE COMPLEX (PKMTR)
Decay date: 2014-06-07

Note: This is SATELLITE DEBRIS
aabbcc
Your satellite tracking list
Your tracking list is empty




NASA's NSSDC Master Catalog

Two Line Element Set (TLE):
1 32961U 77027G   14156.08079662  .56878383  85105-5  11712+0 0  9992
2 32961 061.7432 062.7809 1112000 047.1018 321.8091 13.68528854 74548
Source of the keplerian elements: AFSPC